Vertical_Velocity
2 1 1 0 -2 -1 -2 0 -1 -1 0 -1 -2 -1 -2 -2 -2 -3 -3 -3 -4 1
1 1 5 2 -1 3 2 -2 -1 1 -1 1 -2 -0 -2 -3 -2 -1 -3 -1 -3 -2
-0 -1 3 -2 -2 -0 1 -0 -1 -2 -1 -2 -1 -1 -0 -4 -2 -4 -4 -3 -2 -3
-2 -2 4 -0 -1 0 -1 -1 -2 -1 -2 -3 -1 -3 -2 -1 -2 -2 -3 -4 -5 -4
0 1 3 -2 1 -0 -0 -1 -2 -2 -2 -2 -3 -1 -1 -2 -1 -0 -0 -2 -2 -1
-3 0 3 -3 1 -2 -2 -4 -3 -2 -2 -2 -1 -3 -2 -0 -1 -2 -1 -3 -1 0
0 -1 2 -4 -2 -2 1 -3 -1 -2 -3 -4 -3 -3 -3 -2 -0 -1 -1 -2 1 2
-0 -2 1 0 -1 -4 -2 -1 -2 -3 -7 -6 -4 -4 -1 0 -0 -1 0 -1 1 2
-2 -1 -1 -0 -4 -2 -2 -3 -5 -4 -2 -3 -3 -1 -0 -0 1 0 0 2 2 2
-1 2 -1 0 0 -7 -7 -6 -4 -1 -2 -2 -0 -1 -1 -1 -1 0 1 1 3 4
2 -2 3 1 -5 -7 -4 -4 -4 -4 -3 -1 -1 -1 -0 0 1 2 2 3 3 3
-1 2 1 -4 -2 -1 -3 -3 -3 -4 -2 -2 -3 -2 -1 -0 1 1 2 3 3 3
1 1 -2 -1 -1 -3 -2 -1 -4 -4 -2 -1 -2 -2 -2 -2 -1 -1 -1 -1 -2 -2
1 0 -0 -1 -2 -1 -3 -1 -2 -0 2 1 0 0 0 0 1 2 3 3 1 1
Height
5653 5650 5648 5644 5642 5641 5638 5635 5633 5630 5627 5624 5620 5617 5613 5611 5607 5605 5603 5601 5600 5597
5641 5639 5636 5632 5629 5627 5624 5620 5619 5616 5613 5609 5606 5602 5598 5594 5591 5588 5585 5583 5581 5579
5630 5629 5626 5621 5618 5615 5612 5609 5606 5603 5599 5595 5591 5586 5581 5577 5572 5568 5566 5563 5561 5559
5619 5617 5614 5610 5607 5605 5601 5598 5594 5589 5584 5578 5573 5567 5562 5557 5552 5547 5543 5541 5539 5537
5608 5606 5604 5600 5598 5594 5590 5585 5579 5573 5567 5560 5553 5547 5542 5538 5534 5529 5525 5522 5520 5519
5601 5599 5596 5592 5588 5583 5577 5570 5564 5556 5548 5542 5536 5531 5526 5522 5520 5517 5514 5512 5510 5508
5594 5591 5587 5582 5576 5570 5563 5556 5549 5542 5535 5528 5523 5518 5514 5511 5509 5507 5505 5503 5501 5500
5587 5583 5579 5573 5566 5559 5552 5545 5539 5532 5526 5520 5514 5509 5506 5504 5502 5500 5499 5497 5495 5494
5579 5576 5573 5568 5560 5552 5546 5538 5532 5527 5521 5516 5512 5508 5505 5502 5500 5498 5495 5493 5491 5489
5573 5572 5569 5564 5558 5551 5543 5536 5531 5526 5521 5517 5512 5508 5505 5502 5499 5496 5494 5491 5489 5487
5569 5568 5566 5561 5555 5549 5544 5540 5535 5530 5525 5520 5516 5511 5507 5503 5500 5496 5493 5490 5487 5484
5566 5565 5562 5558 5553 5549 5545 5542 5538 5534 5529 5525 5520 5516 5511 5506 5503 5499 5495 5492 5488 5485
5563 5562 5559 5556 5552 5549 5546 5543 5540 5536 5532 5527 5522 5518 5514 5510 5506 5502 5498 5494 5491 5487
5560 5558 5556 5554 5551 5549 5546 5543 5540 5536 5532 5528 5523 5519 5514 5510 5506 5502 5498 5495 5492 5488